Wetbulb
38.13 32.29 28.55 32.40 33.84 31.85 30.08 28.60 27.31 29.34 33.47 32.43 31.49 32.40 34.74 36.09 35.65 34.82 37.07 38.56 38.59 39.29 40.61 42.17 44.10 54.74 56.23 55.98 55.08 53.32 50.41 49.55 48.75 46.88 45.53 44.43 43.62 44.86 44.91 45.43 47.27 47.75 48.92 49.14
33.39 29.30 34.35 36.38 35.52 32.97 30.88 28.31 27.81 31.58 33.20 32.08 30.62 30.94 34.73 35.37 35.36 38.03 37.88 37.57 38.69 39.44 40.39 40.91 45.23 54.36 55.43 54.98 54.50 52.69 50.90 49.19 48.42 47.66 45.75 45.82 45.18 45.00 45.19 45.77 46.61 47.83 48.82 49.16
31.14 33.31 37.17 35.64 34.02 32.44 31.74 29.98 28.99 29.79 31.33 31.23 28.79 28.11 31.42 33.98 34.73 36.47 37.01 38.71 39.11 40.10 40.11 39.99 47.02 53.31 54.83 54.54 53.42 52.61 50.66 49.18 48.39 47.50 46.70 45.17 45.02 44.94 44.48 44.54 45.48 46.82 48.83 48.84
32.19 36.37 34.61 33.81 33.06 34.00 29.14 34.04 33.60 32.10 29.24 24.42 28.12 21.49 28.55 33.68 34.08 34.89 36.56 34.42 37.79 36.98 39.08 40.75 47.26 52.07 54.01 54.50 53.56 52.64 50.52 49.22 48.20 47.57 45.68 45.64 43.83 43.25 43.96 44.36 45.13 46.23 47.99 48.26
30.08 31.22 31.81 31.68 33.42 36.37 33.09 35.95 34.16 32.66 28.76 26.11 25.45 23.00 27.23 29.80 31.71 35.62 38.18 35.97 34.90 36.23 37.52 39.83 47.20 51.87 54.09 53.99 52.47 51.82 50.14 48.93 47.80 47.16 46.93 45.38 43.72 43.59 44.18 44.47 45.06 45.31 46.62 47.85
32.94 35.44 35.57 33.94 35.70 36.95 35.92 34.12 33.45 30.40 27.27 16.97 26.32 26.84 25.50 30.46 33.94 35.25 36.03 36.81 36.73 35.51 35.86 38.78 46.09 50.34 51.09 53.00 52.00 50.55 48.83 48.35 47.56 46.80 45.54 44.56 43.53 42.84 43.57 43.73 43.92 44.37 45.71 46.53
30.19 30.38 33.81 35.94 31.70 33.17 32.57 29.23 18.61 16.56 14.35 18.32 25.94 23.81 29.27 34.00 36.40 35.88 36.73 37.14 36.58 36.20 35.51 37.03 41.97 45.72 49.34 51.02 49.79 49.33 48.73 46.83 46.63 45.76 45.25 43.98 43.43 43.60 43.68 44.18 43.96 44.09 44.71 45.31
25.16 21.58 30.74 33.70 32.11 29.62 28.52 29.86 22.37 17.01 17.04 21.77 25.86 23.26 29.52 35.69 38.46 36.54 37.76 37.93 36.76 35.47 35.72 36.73 40.12 45.25 49.44 49.63 49.07 48.93 47.87 45.93 45.68 45.30 44.78 42.96 43.68 44.49 44.36 44.39 44.01 44.41 45.21 45.66
24.37 25.10 32.29 34.69 33.65 34.55 28.92 27.67 31.47 23.67 17.00 20.52 23.99 26.76 32.91 35.86 36.37 35.79 36.53 37.12 37.58 37.08 36.47 37.48 39.13 41.75 46.76 47.49 47.65 48.08 46.75 45.63 45.37 45.09 44.17 42.48 43.36 43.59 43.91 43.84 44.27 44.90 45.64 46.23
30.26 21.58 29.79 31.81 34.46 32.38 32.36 33.92 25.57 22.35 12.48 15.03 21.36 22.95 28.71 32.36 35.26 35.51 35.45 36.50 38.01 38.40 37.69 38.68 40.65 43.82 46.21 46.90 46.62 46.42 46.59 45.46 45.23 44.54 43.95 42.37 43.20 43.80 43.88 43.59 43.93 44.69 45.52 46.23
33.20 28.47 26.16 30.29 28.53 29.06 27.51 28.05 27.46 27.60 24.78 19.18 14.96 23.83 31.88 37.09 37.77 37.55 36.25 36.04 36.70 38.71 39.81 40.27 41.70 43.98 45.34 45.43 45.60 45.36 45.25 44.92 44.49 44.08 42.25 41.91 42.74 43.63 43.74 43.96 44.43 44.79 45.14 45.72
35.63 30.34 22.58 26.42 30.87 33.09 32.30 29.97 29.66 24.52 18.51 21.99 23.11 23.72 36.18 36.82 37.20 37.15 35.83 36.98 35.59 37.50 40.05 41.65 42.94 44.53 44.99 44.97 45.19 44.62 44.56 44.45 44.58 43.52 42.14 42.03 42.61 42.89 43.41 43.58 44.15 44.39 44.37 45.21
35.89 29.71 22.59 24.92 29.32 29.63 29.29 29.69 33.29 28.78 26.77 23.31 21.98 24.57 35.09 35.23 35.58 34.74 36.60 35.93 36.07 38.49 40.34 41.33 42.19 43.45 43.73 44.21 44.83 44.11 43.83 44.18 43.26 42.44 41.79 41.05 41.59 42.19 42.86 43.36 43.69 43.89 44.05 44.66
37.81 31.42 28.48 24.12 26.31 28.78 23.57 29.00 29.82 28.59 22.11 24.89 28.10 26.51 32.16 32.97 34.34 34.17 34.32 34.20 34.81 39.10 40.93 41.21 41.87 42.86 43.88 44.75 44.65 44.23 43.57 43.55 41.90 41.18 40.93 40.82 41.20 42.13 42.92 43.32 43.40 43.61 44.06 44.63
34.67 29.20 30.09 30.90 28.74 30.93 28.59 28.77 29.17 26.76 30.46 26.11 30.30 25.86 31.58 34.34 34.37 33.78 34.28 34.34 34.78 35.68 38.24 40.41 40.94 42.36 43.20 43.85 44.19 44.11 43.27 42.24 41.63 41.20 40.86 40.83 41.06 41.67 42.19 42.61 42.77 43.23 43.69 44.74
32.72 23.37 30.51 28.08 30.30 29.66 27.10 29.41 29.51 28.65 29.78 30.19 29.09 24.53 34.41 35.16 35.18 36.21 36.28 35.15 34.74 35.16 36.30 38.72 40.48 40.84 42.59 42.96 44.16 43.99 42.05 41.39 41.60 41.11 40.74 40.63 40.95 41.72 41.80 41.70 42.23 42.60 42.94 43.93
25.60 26.72 24.98 22.38 30.46 28.42 25.47 28.47 29.10 30.23 32.48 31.86 27.34 33.56 34.62 36.13 37.49 35.95 36.20 36.22 36.27 35.93 35.78 37.70 40.81 41.75 43.36 43.82 44.79 43.71 42.34 41.79 41.21 40.49 39.60 40.17 40.56 40.79 41.39 41.83 42.03 42.14 42.63 43.88
23.22 22.29 23.43 19.20 22.56 19.03 27.29 33.75 33.61 31.84 33.58 34.74 34.86 35.42 35.81 36.02 37.28 37.51 37.67 38.02 38.02 37.33 37.03 36.59 37.77 41.50 42.14 42.90 43.29 43.79 42.16 41.30 40.49 39.85 39.31 39.93 39.72 39.76 39.99 40.63 41.53 41.55 42.35 42.96
27.33 23.51 19.71 17.80 10.91 22.86 27.29 30.43 31.88 29.31 29.58 35.28 33.66 35.80 35.57 35.65 35.35 37.22 37.12 37.76 39.51 39.11 38.81 38.89 38.49 39.77 41.54 43.07 43.98 43.39 40.98 40.95 39.98 39.49 39.39 39.70 40.09 39.13 39.45 40.12 40.36 41.32 41.49 41.43
26.85 26.39 21.01 16.68 15.25 7.38 22.48 31.78 35.47 37.43 28.10 38.11 36.26 35.48 35.46 35.13 30.09 35.82 39.26 39.67 41.15 41.47 38.87 38.43 37.44 37.75 40.69 42.81 43.27 42.36 40.68 40.04 39.45 39.37 39.35 39.73 39.99 39.75 39.57 40.10 39.85 38.21 40.28 39.70
14.82 20.58 17.27 17.64 15.93 19.18 26.97 32.30 34.74 23.33 27.31 33.12 34.82 34.84 34.94 33.57 37.48 39.29 38.81 39.06 39.68 40.32 39.78 36.92 36.25 38.32 40.11 40.88 41.72 40.18 39.61 39.22 40.38 37.81 37.53 38.64 39.18 39.02 40.13 39.33 37.00 38.22 37.19 37.17
13.28 14.24 14.91 17.73 15.68 13.12 28.80 26.74 25.14 29.15 31.65 33.24 34.10 34.83 34.64 35.16 36.60 36.82 36.49 36.81 38.08 38.20 37.83 35.67 35.38 36.96 38.25 38.91 40.47 39.43 38.71 39.86 36.42 36.36 36.14 35.64 36.17 37.23 37.42 36.70 34.57 35.18 35.62 35.35
12.92 18.94 16.78 20.05 20.52 28.08 28.96 30.05 33.10 33.59 33.84 33.50 34.72 34.75 35.28 36.45 35.48 35.79 35.56 35.99 36.37 36.76 37.60 34.73 34.84 33.82 33.39 36.59 39.86 38.90 38.27 35.09 35.10 35.40 34.93 34.37 33.89 34.37 34.57 35.44 34.47 34.46 34.91 37.42
19.06 24.75 19.54 19.41 24.47 26.32 29.35 29.65 30.91 32.33 32.73 34.88 35.39 35.91 35.22 35.20 35.35 34.93 34.96 35.33 35.08 34.60 34.12 32.23 31.20 31.58 32.85 34.40 36.43 38.07 33.27 35.25 35.62 35.10 34.19 34.13 34.62 33.21 32.77 33.45 34.84 36.05 36.96 37.01
22.64 22.03 20.22 20.47 24.42 26.26 29.24 31.21 31.55 33.28 35.20 35.29 34.79 36.31 35.24 35.36 35.11 34.89 34.16 33.88 33.88 33.54 30.86 29.99 32.87 33.12 33.22 31.73 30.35 31.29 33.66 35.19 34.97 34.23 33.86 34.03 34.60 34.82 34.48 34.74 35.66 36.58 36.69 38.20
24.23 22.35 19.67 18.07 26.46 27.18 29.05 31.71 32.84 32.13 33.46 35.14 35.24 34.22 33.00 34.35 34.40 32.86 32.36 33.13 32.67 32.80 27.56 28.61 29.36 28.57 27.40 30.50 30.29 31.04 33.77 35.25 34.81 34.39 34.29 34.60 34.78 34.81 34.95 34.83 34.08 36.62 37.23 37.44
MSLP
1014.94 1015.24 1014.41 1014.63 1014.68 1014.78 1014.77 1014.65 1014.36 1013.81 1013.37 1013.65 1013.69 1013.07 1012.36 1011.65 1011.31 1011.21 1010.54 1010.08 1009.98 1009.74 1009.16 1009.27 1009.87 1010.71 1011.46 1012.20 1013.03 1013.97 1014.97 1015.85 1016.57 1017.52 1018.29 1018.78 1019.11 1019.13 1019.31 1019.17 1019.05 1019.16 1019.34 1019.42
1015.27 1013.66 1013.94 1014.17 1014.57 1014.74 1014.86 1014.79 1014.54 1013.91 1013.50 1013.67 1013.58 1013.29 1012.08 1011.32 1010.70 1009.64 1009.43 1009.31 1008.94 1008.97 1008.85 1009.14 1009.58 1010.25 1010.83 1011.66 1012.49 1013.49 1014.34 1015.43 1016.28 1016.98 1017.66 1018.18 1018.73 1019.06 1019.21 1019.16 1019.11 1019.11 1019.21 1019.34
1013.61 1013.13 1013.33 1013.83 1014.15 1014.50 1014.38 1014.48 1014.53 1014.36 1014.08 1013.94 1013.85 1012.83 1011.52 1010.16 1009.43 1008.61 1008.29 1007.84 1008.04 1007.93 1008.39 1008.86 1009.42 1009.78 1010.43 1011.18 1011.92 1012.83 1013.81 1014.78 1015.67 1016.55 1017.46 1018.02 1018.74 1019.08 1019.37 1019.38 1019.37 1019.25 1019.26 1019.43
1013.80 1012.96 1013.10 1013.33 1013.30 1013.57 1013.94 1013.63 1014.22 1014.66 1015.00 1015.08 1014.31 1013.30 1011.60 1009.91 1009.02 1008.09 1007.10 1007.42 1007.04 1007.32 1007.63 1008.13 1008.83 1009.41 1009.95 1010.76 1011.67 1012.50 1013.50 1014.45 1015.37 1016.10 1016.95 1017.56 1018.01 1018.70 1018.80 1018.92 1019.19 1019.40 1019.37 1019.53
1012.30 1012.34 1012.83 1012.71 1011.87 1012.72 1012.85 1013.08 1013.98 1014.77 1015.36 1015.46 1014.98 1014.83 1010.90 1009.85 1008.80 1007.11 1005.94 1005.91 1006.32 1006.76 1007.13 1007.55 1008.20 1008.84 1009.54 1010.51 1011.35 1012.27 1013.19 1014.19 1015.04 1015.79 1016.40 1017.17 1017.88 1018.22 1018.47 1018.83 1019.12 1019.36 1019.54 1019.60
1011.78 1011.43 1011.54 1011.18 1011.60 1012.09 1012.74 1013.61 1014.64 1015.61 1016.23 1016.12 1014.78 1014.18 1010.83 1009.16 1007.01 1005.90 1005.25 1005.30 1005.60 1006.23 1006.67 1007.28 1007.88 1008.72 1009.65 1010.50 1011.37 1012.25 1013.12 1013.91 1014.63 1015.35 1016.05 1016.65 1017.22 1017.86 1018.38 1018.81 1019.05 1019.20 1019.50 1019.76
1011.71 1011.42 1010.88 1010.70 1011.62 1012.17 1012.55 1013.58 1015.87 1016.93 1017.18 1015.40 1014.03 1013.67 1009.18 1007.18 1005.83 1005.25 1005.01 1004.99 1005.24 1005.77 1006.57 1007.20 1007.75 1008.72 1009.67 1010.40 1011.24 1012.08 1012.88 1013.76 1014.44 1015.15 1015.83 1016.32 1016.81 1017.34 1017.76 1018.34 1018.77 1019.14 1019.40 1019.63
1010.61 1011.40 1009.71 1009.46 1009.59 1010.41 1011.83 1012.35 1013.49 1015.09 1015.71 1015.02 1014.10 1011.86 1008.00 1005.89 1004.45 1004.74 1004.78 1004.96 1005.47 1006.08 1006.59 1007.31 1008.06 1008.48 1009.28 1010.06 1010.85 1011.62 1012.56 1013.53 1014.31 1015.01 1015.65 1016.10 1016.50 1017.09 1017.46 1017.88 1018.25 1018.71 1019.04 1019.33
1009.45 1009.41 1008.54 1008.59 1008.87 1009.21 1011.36 1011.63 1012.16 1013.62 1014.98 1014.73 1012.73 1009.97 1007.57 1005.50 1004.77 1004.61 1004.59 1005.02 1005.77 1006.31 1006.90 1007.34 1008.04 1008.52 1009.11 1009.95 1010.72 1011.34 1012.18 1013.10 1013.82 1014.47 1015.32 1016.00 1016.47 1016.83 1017.34 1017.83 1018.07 1018.46 1018.94 1019.22
1008.19 1008.81 1008.50 1008.72 1008.62 1009.05 1008.70 1010.20 1012.17 1013.28 1014.07 1014.06 1011.58 1009.90 1007.17 1005.49 1004.72 1004.34 1004.65 1005.11 1005.68 1006.41 1007.11 1007.71 1008.10 1008.54 1009.08 1009.70 1010.53 1011.43 1012.14 1012.73 1013.45 1014.19 1014.91 1015.67 1016.26 1016.65 1017.06 1017.55 1018.02 1018.22 1018.66 1019.20
1008.25 1008.35 1009.26 1008.64 1007.78 1007.49 1008.96 1009.49 1010.33 1011.12 1011.96 1011.87 1011.18 1007.78 1005.10 1003.99 1003.37 1003.68 1004.10 1004.86 1005.69 1006.36 1007.11 1007.83 1008.65 1009.16 1009.53 1010.07 1010.77 1011.44 1012.10 1012.81 1013.58 1014.22 1014.89 1015.47 1016.00 1016.52 1017.04 1017.48 1017.82 1018.13 1018.38 1018.89
1007.71 1008.41 1009.03 1008.09 1007.88 1007.49 1007.54 1007.91 1008.56 1009.90 1010.88 1010.53 1009.69 1006.42 1003.88 1003.47 1003.29 1003.62 1004.19 1004.61 1005.18 1006.17 1007.21 1007.84 1008.59 1009.24 1009.81 1010.34 1010.82 1011.40 1012.07 1012.74 1013.46 1014.06 1014.85 1015.46 1015.90 1016.41 1016.96 1017.42 1017.79 1018.16 1018.41 1018.79
1007.18 1007.80 1008.66 1008.87 1008.71 1008.00 1007.46 1007.65 1007.81 1008.40 1008.91 1008.98 1008.65 1005.33 1003.92 1003.61 1003.46 1003.66 1004.18 1004.78 1005.50 1006.46 1007.49 1008.24 1008.84 1009.44 1010.04 1010.52 1010.89 1011.41 1012.04 1012.67 1013.36 1014.10 1014.84 1015.59 1016.12 1016.50 1016.83 1017.24 1017.70 1018.15 1018.43 1018.77
1007.73 1007.22 1006.78 1005.87 1005.25 1006.70 1007.48 1007.26 1007.69 1008.12 1008.29 1006.89 1005.39 1005.11 1004.40 1004.03 1003.76 1004.03 1004.50 1005.41 1006.37 1007.10 1007.79 1008.40 1009.07 1009.52 1009.88 1010.28 1010.67 1011.12 1011.75 1012.28 1013.03 1013.83 1014.67 1015.38 1015.92 1016.34 1016.66 1017.13 1017.58 1017.98 1018.37 1018.75
1008.63 1007.36 1006.89 1006.10 1006.29 1006.13 1006.29 1006.79 1007.17 1007.39 1005.68 1006.73 1004.24 1005.59 1004.40 1004.25 1004.16 1004.74 1005.22 1006.12 1006.85 1007.48 1008.11 1008.58 1008.90 1009.22 1009.67 1010.19 1010.63 1011.02 1011.56 1012.12 1012.75 1013.62 1014.37 1015.07 1015.65 1016.22 1016.66 1017.14 1017.57 1017.99 1018.31 1018.77
1009.57 1008.42 1007.36 1006.38 1006.30 1006.20 1006.29 1006.10 1006.53 1006.19 1005.75 1005.57 1004.92 1005.27 1004.28 1004.27 1004.30 1004.77 1005.45 1006.22 1006.93 1007.42 1007.82 1008.13 1008.53 1009.05 1009.37 1009.73 1010.03 1010.58 1011.11 1011.83 1012.38 1013.03 1013.81 1014.62 1015.38 1015.96 1016.51 1017.03 1017.40 1017.93 1018.32 1018.77
1011.25 1009.53 1008.52 1007.54 1006.53 1006.50 1006.46 1004.95 1005.19 1004.73 1004.51 1004.32 1004.32 1003.08 1004.93 1004.46 1004.27 1004.63 1005.03 1006.05 1006.44 1006.76 1007.26 1007.70 1007.81 1008.09 1008.43 1008.82 1009.41 1010.06 1010.67 1011.29 1012.02 1012.73 1013.47 1014.15 1014.82 1015.48 1016.01 1016.64 1017.13 1017.60 1018.14 1018.52
1012.10 1011.68 1010.86 1009.14 1008.25 1006.29 1005.29 1004.24 1004.04 1004.08 1003.63 1003.99 1003.45 1003.83 1004.51 1004.92 1004.60 1003.94 1004.34 1005.01 1005.65 1006.26 1006.66 1006.88 1007.30 1007.70 1008.20 1008.71 1009.22 1009.87 1010.41 1011.00 1011.74 1012.40 1013.00 1013.59 1014.19 1014.92 1015.60 1016.24 1016.63 1017.16 1017.68 1018.14
1011.04 1011.50 1011.22 1010.04 1009.08 1007.08 1005.42 1004.56 1004.02 1003.55 1002.43 1002.90 1002.97 1004.20 1004.74 1005.01 1005.21 1004.44 1004.30 1004.69 1004.92 1005.12 1005.46 1005.66 1005.98 1006.74 1007.56 1007.97 1008.54 1009.27 1010.10 1010.59 1011.38 1011.94 1012.46 1013.14 1013.93 1014.64 1015.15 1015.68 1016.33 1016.76 1017.32 1017.88
1010.71 1010.78 1011.46 1010.54 1008.82 1007.27 1005.32 1004.57 1003.89 1003.79 1002.56 1002.39 1003.30 1004.26 1004.64 1005.13 1005.24 1003.25 1004.37 1004.12 1004.11 1004.25 1004.29 1004.84 1005.23 1005.94 1006.78 1007.18 1007.94 1008.81 1009.48 1010.18 1010.70 1011.27 1011.91 1012.65 1013.34 1014.19 1014.86 1015.37 1016.01 1016.47 1017.11 1017.62
1010.35 1010.15 1010.21 1010.07 1008.90 1007.02 1005.02 1004.62 1004.05 1005.00 1003.71 1003.38 1003.96 1004.39 1004.70 1004.84 1004.04 1004.18 1003.91 1003.63 1003.64 1003.56 1003.71 1004.09 1004.86 1005.45 1005.79 1006.89 1007.51 1008.28 1008.98 1009.17 1009.39 1010.66 1011.62 1012.22 1012.79 1013.57 1014.29 1015.18 1015.83 1016.31 1017.08 1017.83
1008.96 1009.05 1008.67 1008.79 1007.95 1006.50 1005.64 1004.86 1004.59 1004.17 1003.75 1003.71 1003.64 1003.91 1004.29 1004.20 1003.83 1004.02 1004.29 1004.31 1004.29 1004.05 1003.87 1004.20 1004.82 1005.11 1005.28 1005.95 1006.97 1007.74 1008.06 1007.91 1009.09 1010.15 1011.16 1012.15 1012.80 1013.51 1014.44 1015.20 1015.85 1016.42 1016.89 1017.78
1007.40 1006.99 1006.91 1006.44 1004.74 1004.06 1003.88 1004.16 1004.04 1003.93 1003.92 1003.76 1003.73 1003.96 1004.03 1004.25 1003.93 1003.97 1004.13 1004.36 1004.51 1004.46 1004.32 1004.13 1004.33 1004.77 1005.46 1005.82 1005.94 1006.66 1006.82 1007.95 1008.93 1009.88 1010.75 1011.49 1012.54 1013.30 1014.02 1015.03 1015.95 1016.66 1016.98 1017.57
1005.81 1005.37 1005.50 1005.63 1004.44 1003.53 1002.78 1002.63 1002.24 1002.50 1002.89 1003.04 1003.47 1003.13 1004.10 1004.29 1003.83 1003.69 1003.98 1003.82 1004.03 1004.18 1004.36 1004.41 1004.72 1004.97 1005.22 1005.53 1005.60 1005.77 1006.83 1007.66 1008.60 1009.66 1010.52 1011.34 1012.18 1013.19 1014.16 1014.62 1015.44 1016.40 1016.77 1017.22
1004.24 1004.24 1004.03 1003.78 1003.90 1003.27 1002.35 1002.62 1003.13 1002.77 1002.50 1002.33 1003.05 1003.09 1003.61 1003.96 1003.66 1003.35 1003.47 1003.78 1003.75 1003.86 1003.83 1004.22 1004.53 1004.48 1004.63 1004.94 1005.43 1006.01 1006.71 1007.39 1008.50 1009.39 1010.44 1011.35 1012.14 1012.81 1014.00 1014.69 1014.93 1015.73 1016.37 1016.56
1002.39 1002.24 1002.24 1002.13 1002.58 1002.16 1001.39 1001.67 1002.05 1002.23 1002.10 1001.85 1002.62 1003.31 1003.42 1003.70 1003.63 1003.51 1003.83 1003.52 1003.58 1003.99 1003.57 1003.95 1004.22 1004.42 1004.41 1004.91 1005.23 1005.75 1006.33 1006.99 1008.03 1009.34 1010.23 1011.12 1011.87 1012.75 1013.63 1014.66 1015.55 1015.98 1016.36 1016.95
Wind_Speed
5 5 12 14 14 2 4 4 3 3 3 3 7 11 11 11 10 10 14 11 10 11 10 9 12 12 14 15 16 15 14 11 10 6 5 3 3 3 1 3 5 5 4 4
4 17 9 9 7 9 5 3 5 5 4 3 5 12 13 12 12 19 16 14 14 7 8 7 9 13 17 17 17 16 15 13 10 7 3 3 4 2 2 2 3 4 5 4
13 4 15 12 8 12 8 10 4 6 3 3 4 8 9 7 8 10 12 17 12 16 11 8 10 15 15 18 18 17 16 16 12 10 5 4 4 3 2 1 1 3 5 4
12 6 14 9 15 12 9 11 8 6 3 5 1 8 7 8 10 8 14 10 17 11 8 8 13 14 16 16 15 16 15 15 12 12 8 11 5 6 4 4 2 3 4 4
11 12 11 11 11 16 6 8 11 6 4 0 3 2 9 3 8 16 15 11 11 11 10 12 15 16 15 15 15 14 15 14 13 12 11 9 6 3 3 3 6 4 3 4
7 4 12 10 7 15 8 7 7 5 3 2 9 9 6 7 11 7 7 7 9 10 10 9 9 11 10 12 14 13 15 13 14 13 11 11 10 7 6 5 5 4 3 3
4 5 5 8 8 4 6 9 3 3 2 8 2 4 9 9 13 9 10 8 9 8 8 9 15 14 12 15 15 14 15 13 13 13 11 10 9 9 10 8 6 5 4 3
15 7 15 8 9 11 8 10 9 9 6 3 4 10 9 14 12 5 7 8 1 4 7 9 9 12 15 16 16 16 15 13 13 12 11 8 8 6 5 7 5 4 4 4
8 12 4 14 6 14 8 13 6 7 3 3 6 8 9 11 13 6 9 3 6 7 8 10 9 9 12 13 14 15 15 13 14 13 10 9 7 8 7 7 5 5 4 4
4 1 6 7 6 1 14 12 4 3 6 5 6 6 8 3 10 8 6 8 8 5 6 6 7 9 10 12 11 12 13 15 14 12 10 9 9 7 7 6 7 7 6 6
2 3 4 9 13 18 6 11 3 7 6 7 2 8 10 18 13 13 10 8 8 9 7 7 5 5 6 8 10 10 11 12 11 10 9 9 8 7 7 7 6 6 6 7
10 2 4 17 5 6 7 10 9 8 8 2 4 10 4 9 8 5 3 7 7 6 8 7 7 8 9 10 10 10 9 10 10 9 9 9 8 7 8 7 7 7 7 6
15 7 4 5 5 1 16 7 20 4 4 13 10 8 4 3 4 1 7 5 4 6 7 6 7 8 7 7 9 9 8 9 8 9 9 7 7 8 8 7 7 7 6 6
6 11 16 16 13 8 7 16 10 6 4 6 21 5 2 4 4 2 4 3 4 5 7 6 6 6 7 9 10 9 9 10 10 10 9 9 9 9 8 7 7 7 6 7
2 5 21 19 4 14 9 16 20 16 25 10 17 11 8 6 6 3 1 4 5 5 7 7 7 8 8 8 8 8 9 10 11 11 11 10 8 7 7 7 7 7 7 6
7 4 5 25 13 12 7 18 18 22 19 20 11 4 8 4 2 4 5 5 6 8 9 9 8 8 10 11 11 11 11 11 12 13 12 10 9 9 9 7 8 7 7 6
7 6 5 4 12 8 15 19 22 23 24 26 20 24 5 12 13 5 5 7 8 8 8 10 12 12 12 13 13 13 13 11 12 12 10 11 11 11 10 9 9 9 8 6
4 7 4 3 3 11 2 6 19 25 19 24 24 14 7 7 8 10 5 5 6 7 8 9 8 9 9 8 9 9 11 12 12 12 12 12 12 11 9 10 11 9 8 8
12 5 4 3 5 5 2 4 16 17 20 21 15 12 7 5 5 15 5 5 8 7 9 10 9 8 10 13 13 13 12 13 12 13 13 13 13 12 12 12 11 9 7 6
14 13 6 3 4 8 7 6 8 13 22 19 10 7 8 7 7 14 8 10 13 13 7 9 9 6 10 13 13 14 14 14 15 14 14 13 13 13 13 12 10 5 6 6
4 7 14 13 8 5 6 4 8 1 4 3 6 2 3 5 11 5 5 8 7 9 11 5 7 11 14 9 14 15 13 18 14 11 11 12 12 13 13 10 5 7 6 6
10 9 7 6 11 17 7 1 7 8 6 5 3 3 4 3 6 4 4 7 10 10 8 6 7 10 10 13 14 14 17 13 11 12 12 10 9 7 6 9 6 6 8 7
8 8 7 11 8 6 8 11 13 12 18 7 5 8 8 5 7 5 4 6 7 10 10 5 9 8 7 11 15 16 14 12 12 13 13 12 10 9 9 10 8 6 7 8
5 12 11 8 7 7 13 7 8 9 12 13 14 20 9 9 9 8 6 8 6 7 7 5 6 8 10 10 12 11 11 12 14 13 12 11 12 10 7 6 7 8 8 9
15 9 15 13 14 10 19 17 14 16 19 20 9 16 12 10 11 10 7 8 8 7 4 5 10 10 12 10 8 8 11 14 13 12 10 10 9 11 9 6 8 9 5 9
11 20 12 9 20 16 24 19 18 19 17 16 13 11 7 8 11 7 7 7 6 9 4 5 7 6 6 9 10 11 12 14 15 12 10 10 10 9 9 9 6 8 11 10
Wind_Direction
204 162 197 189 193 172 160 165 193 238 204 181 222 262 267 273 295 253 264 257 240 238 246 202 183 174 165 165 162 163 155 155 143 143 142 129 169 144 165 173 147 136 113 89
145 226 193 184 185 207 210 200 242 290 242 169 267 259 263 256 248 252 241 247 236 235 234 202 167 167 170 166 167 163 163 156 157 154 140 143 148 167 165 172 151 147 129 113
198 187 171 181 183 198 216 220 208 226 330 255 309 275 261 280 246 266 245 236 235 219 215 196 177 177 171 172 169 167 162 161 159 151 126 95 79 68 101 182 177 164 136 123
228 205 177 192 210 180 213 191 196 190 139 238 106 281 291 272 283 256 259 220 233 218 202 187 184 179 176 176 165 163 160 162 160 154 146 165 169 163 194 167 168 155 142 134
217 177 162 195 202 179 220 156 186 173 176 115 246 294 270 254 266 258 258 234 223 220 201 190 187 181 176 163 165 163 159 162 160 162 162 164 157 158 139 136 152 149 146 146
200 183 188 177 159 176 152 94 61 61 109 287 190 187 246 218 216 249 270 249 227 211 204 192 176 161 161 158 157 157 159 166 165 166 162 169 169 162 152 156 162 161 148 153
148 201 186 148 124 137 167 129 32 359 0 228 168 186 248 257 256 225 258 272 238 213 191 173 162 162 156 161 159 161 165 167 168 168 170 172 171 167 169 168 167 157 152 163
179 204 177 181 180 166 177 162 160 185 196 214 104 231 257 240 270 279 265 266 12 198 172 167 172 168 167 165 164 165 167 164 167 171 176 170 167 170 167 169 160 164 162 161
175 230 156 182 156 145 186 205 150 102 20 69 218 284 289 256 267 262 243 186 203 200 185 173 164 163 157 161 168 166 163 165 171 175 170 173 167 159 167 172 157 160 153 156
230 117 220 184 114 270 179 144 143 343 138 225 266 265 231 301 262 268 225 210 207 193 201 174 173 165 164 162 158 160 165 168 172 167 169 169 173 169 159 157 169 162 153 149
321 138 305 139 204 179 138 182 151 124 165 166 208 257 214 217 217 231 230 207 207 196 188 178 161 135 134 135 152 159 161 161 167 168 162 160 165 166 159 164 164 164 145 151
197 93 163 206 288 205 196 183 161 165 220 232 136 256 225 226 236 245 254 214 213 178 174 169 151 148 152 156 157 161 159 159 168 162 162 167 157 155 161 161 160 156 155 156
197 200 135 113 325 257 208 202 201 110 114 204 163 245 320 138 89 92 177 197 169 146 145 152 148 160 157 159 162 157 155 157 152 155 159 154 156 160 165 161 157 158 154 159
356 210 216 211 208 130 185 202 206 168 181 174 220 131 166 243 201 134 106 118 137 161 170 158 158 171 166 169 171 163 162 157 155 153 157 166 172 174 168 159 155 155 161 159
203 248 221 230 186 182 186 203 203 206 224 190 228 205 264 200 198 217 151 126 146 172 175 186 182 177 170 170 174 164 166 160 159 161 165 177 168 157 150 155 159 159 158 169
336 269 321 224 225 209 194 200 200 217 226 240 219 271 218 220 74 161 167 180 209 207 207 197 193 182 180 181 180 172 169 169 167 170 176 166 161 161 164 158 161 158 160 167
305 337 2 289 212 192 234 208 203 217 220 221 228 227 188 274 261 235 235 195 219 233 217 201 206 198 190 185 183 182 178 164 172 173 170 165 165 169 171 165 161 167 171 160
222 323 301 268 10 223 264 267 199 216 221 229 241 223 187 198 261 295 210 194 244 218 233 227 207 199 191 182 182 172 168 173 175 177 174 171 170 173 163 165 173 168 168 172
187 157 268 231 201 326 331 323 209 186 234 231 250 246 219 213 336 274 258 206 238 240 221 224 206 195 176 184 181 171 175 176 178 184 181 177 173 170 170 175 176 173 163 170
177 183 199 286 237 197 222 137 34 224 248 230 210 220 204 149 209 250 232 216 231 235 216 217 209 167 174 193 174 175 181 181 190 185 180 173 175 177 180 178 174 152 163 165
169 192 208 215 226 267 252 158 93 296 255 61 119 146 70 198 242 307 256 246 236 231 236 196 160 179 201 172 173 185 181 200 188 167 169 174 174 173 177 168 155 150 138 142
175 177 195 207 227 231 208 343 198 217 298 283 147 190 161 213 299 311 336 283 275 262 261 200 180 197 192 170 177 188 197 188 157 156 159 163 163 158 153 157 142 147 145 143
223 195 206 211 225 175 202 206 235 238 260 252 209 203 175 222 259 251 256 263 278 277 271 252 199 191 175 181 185 190 195 153 152 156 163 156 146 147 151 152 151 145 149 164
247 228 229 252 243 221 220 223 214 205 239 247 246 263 181 210 231 237 203 272 260 266 261 228 181 191 195 192 193 197 153 154 156 160 159 154 153 143 139 133 149 157 169 172
222 201 220 232 232 253 245 234 235 242 241 250 218 240 189 205 240 234 230 235 258 257 252 187 211 206 207 179 160 149 154 152 156 151 147 148 145 149 148 152 160 168 180 178
204 218 211 213 218 219 236 230 220 224 218 218 205 214 221 199 244 261 237 239 252 269 203 204 214 206 176 172 156 152 157 156 149 148 151 157 153 150 149 148 122 122 155 162